Location: Unspecified
(54.1780°N, 0.0000°E)
Time: 17:48:14
(UTC+00:00)

S-56A Canister/Altair - Pass Details

Date: 20 June 2019
Orbit: 633 x 2499 km, 38.9° (Epoch: 25 August)

Event Time Altitude Azimuth Distance (km) Brightness Sun altitude
Rises 18:46:18 0° 244° (WSW) 4,086 11.9 12.6°
Reaches altitude 10° 18:50:25 10° 227° (SW) 2,775 10.8 12.1°
Maximum altitude 18:54:25 17° 188° (S) 1,997 9.6 11.5°
Drops below altitude 10° 18:57:46 10° 147° (SSE) 2,253 9.5 11.1°
Sets 19:00:39 0° 126° (SE) 3,030 10.0 10.7°
